Tillamook, OR

6:37 PM PST on February 13, 2016 (GMT -0800)
Tillamook

Weather History for KTMK - September, 2013

Change the Weather History Date:

Monday, September 9, 2013

  Actual Average (KMMV) Record (KMMV)
Temperature  
Mean Temperature - 64 °F  
Max Temperature - 79 °F 97 °F (1963)
Min Temperature - 48 °F 36 °F (1964)
Degree Days  
Heating Degree Days 3  
Month to date heating degree days 23  
Since 1 July heating degree days 108  
Cooling Degree Days 1  
Month to date cooling degree days 17  
Year to date cooling degree days 201  
Moisture  
Dew Point -    
Average Humidity    
Maximum Humidity    
Minimum Humidity    
Precipitation  
Precipitation 0.00 in 0.03 in 0.62 in (1919)
Month to date precipitation 0.33  
Year to date precipitation 22.66  
Sea Level Pressure  
Sea Level Pressure 30.03 in    
Wind  
Wind Speed 2 mph (NW)    
Max Wind Speed 15 mph    
Max Gust Speed 23 mph    
Visibility 8 miles    
Events      
T = Trace of Precipitation, MM = Missing Value Source: NWS Daily Summary

Daily Weather History Graph

Daily Weather History Graph

Search for Another Location

Airport or City:

Trip Planner

Search our weather history database for the weather conditions in past years. The results will help you decide how hot, cold, wet, or windy it might be!

Date:

Astronomy

Sep. 09, 2013 Rise Set
Actual Time 7:46 AM MDT 8:37 PM MDT
Civil Twilight 7:16 AM MDT 9:07 PM MDT
Nautical Twilight 6:41 AM MDT 9:42 PM MDT
Astronomical Twilight 6:03 AM MDT 10:19 PM MDT
Moon 12:29 PM MDT (9/9) 10:41 PM MDT (9/9)
Length of Visible Light 13h 50m
Length of Day
12h 50m
Waxing Crescent, 19% of the Moon is Illuminated
Sep 9
Waxing Crescent
Sep 12
First Quarter
Sep 19
Full
Sep 26
Last Quarter
Oct 4
New

Hourly Weather History & Observations

Time (MDT) Temp. Dew Point Humidity Pressure Visibility Wind Dir Wind Speed Gust Speed Precip Events Conditions
12:15 AM - - N/A% 30.07 in 7.0 mi Calm Calm - N/A   Overcast
12:35 AM - - N/A% 30.07 in 5.0 mi Calm Calm - N/A   Haze
12:55 AM - - N/A% 30.07 in 5.0 mi West 3.5 mph - N/A   Haze
1:15 AM - - N/A% 30.07 in 4.0 mi Calm Calm - N/A   Haze
1:35 AM - - N/A% 30.07 in 5.0 mi Calm Calm - N/A   Haze
1:55 AM - - N/A% 30.07 in 7.0 mi Calm Calm - N/A   Overcast
2:15 AM - - N/A% 30.07 in 7.0 mi Calm Calm - N/A   Overcast
2:35 AM - - N/A% 30.06 in 7.0 mi Calm Calm - N/A   Overcast
2:55 AM - - N/A% 30.06 in 5.0 mi Calm Calm - N/A   Haze
3:15 AM - - N/A% 30.06 in 4.0 mi NW 3.5 mph - N/A   Haze
3:35 AM - - N/A% 30.07 in 1.8 mi Calm Calm - N/A   Overcast
3:55 AM - - N/A% 30.06 in 0.8 mi Calm Calm - N/A   Overcast
4:15 AM - - N/A% 30.06 in 1.8 mi Calm Calm - N/A   Overcast
4:35 AM - - N/A% 30.05 in 4.0 mi Calm Calm - N/A   Haze
4:55 AM - - N/A% 30.05 in 4.0 mi Calm Calm - N/A   Haze
5:15 AM - - N/A% 30.05 in 3.0 mi WNW 4.6 mph - N/A   Overcast
5:35 AM - - N/A% 30.06 in 4.0 mi Calm Calm - N/A   Haze
5:55 AM - - N/A% 30.06 in 5.0 mi Calm Calm - N/A   Haze
6:15 AM - - N/A% 30.06 in 5.0 mi NW 3.5 mph - N/A   Haze
6:35 AM - - N/A% 30.06 in 7.0 mi Calm Calm - N/A   Overcast
6:55 AM - - N/A% 30.05 in 10.0 mi Calm Calm - N/A   Overcast
7:15 AM - - N/A% 30.05 in 7.0 mi Calm Calm - N/A   Overcast
7:35 AM - - N/A% 30.05 in 10.0 mi Calm Calm - N/A   Overcast
7:55 AM - - N/A% 30.05 in 10.0 mi Calm Calm - N/A   Overcast
8:15 AM - - N/A% 30.06 in 7.0 mi Calm Calm - N/A   Overcast
8:35 AM - - N/A% 30.06 in 10.0 mi Calm Calm - N/A   Overcast
8:55 AM - - N/A% 30.06 in 7.0 mi Calm Calm - N/A   Overcast
9:15 AM - - N/A% 30.07 in 7.0 mi Calm Calm - N/A   Overcast
9:35 AM - - N/A% 30.06 in 7.0 mi Calm Calm - N/A   Overcast
9:55 AM - - N/A% 30.07 in 7.0 mi Calm Calm - N/A   Overcast
10:15 AM - - N/A% 30.07 in 10.0 mi Calm Calm - N/A   Overcast
10:35 AM - - N/A% 30.07 in 10.0 mi Calm Calm - N/A   Overcast
10:55 AM - - N/A% 30.07 in 10.0 mi Calm Calm - N/A   Overcast
11:15 AM - - N/A% 30.07 in 10.0 mi Calm Calm - N/A   Mostly Cloudy
11:35 AM - - N/A% 30.07 in 10.0 mi Calm Calm - N/A   Mostly Cloudy
11:55 AM - - N/A% 30.06 in 10.0 mi Calm Calm - N/A   Overcast
12:15 PM - - N/A% 30.06 in 10.0 mi Calm Calm - N/A   Mostly Cloudy
12:35 PM - - N/A% 30.05 in 10.0 mi Calm Calm - N/A   Scattered Clouds
12:55 PM - - N/A% 30.05 in 10.0 mi Calm Calm - N/A   Mostly Cloudy
1:15 PM - - N/A% 30.05 in 10.0 mi NNW 8.1 mph - N/A   Scattered Clouds
1:55 PM - - N/A% 30.04 in 10.0 mi WNW 10.4 mph - N/A   Clear
2:15 PM - - N/A% 30.04 in 10.0 mi NW 9.2 mph - N/A   Clear
2:35 PM - - N/A% 30.03 in 10.0 mi NW 13.8 mph - N/A   Clear
2:55 PM - - N/A% 30.03 in 10.0 mi NW 12.7 mph 16.1 mph N/A   Clear
3:15 PM - - N/A% 30.03 in 10.0 mi NW 12.7 mph - N/A   Clear
3:35 PM - - N/A% 30.02 in 10.0 mi NW 12.7 mph 18.4 mph N/A   Clear
3:55 PM - - N/A% 30.01 in 10.0 mi NW 10.4 mph - N/A   Clear
4:15 PM - - N/A% 30.01 in 10.0 mi NW 12.7 mph - N/A   Clear
4:35 PM - - N/A% 30.01 in 10.0 mi NW 12.7 mph - N/A   Clear
4:55 PM - - N/A% 30.01 in 10.0 mi NW 15.0 mph 19.6 mph N/A   Clear
5:15 PM - - N/A% 30.00 in 10.0 mi NW 13.8 mph 21.9 mph N/A   Clear
5:35 PM - - N/A% 30.00 in 10.0 mi NW 13.8 mph 20.7 mph N/A   Clear
5:55 PM - - N/A% 30.00 in 10.0 mi NW 15.0 mph 23.0 mph N/A   Clear
6:15 PM - - N/A% 30.00 in 10.0 mi NNW 15.0 mph 18.4 mph N/A   Clear
6:35 PM - - N/A% 29.99 in 10.0 mi NNW 11.5 mph 16.1 mph N/A   Clear
6:55 PM - - N/A% 29.99 in 10.0 mi NW 8.1 mph - N/A   Clear
7:15 PM - - N/A% 29.99 in 10.0 mi NW 9.2 mph - N/A   Clear
7:35 PM - - N/A% 29.99 in 10.0 mi NW 6.9 mph - N/A   Clear
7:55 PM - - N/A% 29.99 in 10.0 mi NNW 6.9 mph - N/A   Clear
8:15 PM - - N/A% 29.98 in 10.0 mi NW 5.8 mph - N/A   Clear
8:35 PM - - N/A% 29.98 in 10.0 mi Calm Calm - N/A   Clear
8:55 PM - - N/A% 29.98 in 10.0 mi Calm Calm - N/A   Clear
9:15 PM - - N/A% 29.98 in 10.0 mi North 4.6 mph - N/A   Clear
9:35 PM - - N/A% 29.98 in 10.0 mi North 3.5 mph - N/A   Clear
9:55 PM - - N/A% 29.99 in 10.0 mi NNE 3.5 mph - N/A   Clear
10:15 PM - - N/A% 29.98 in 10.0 mi North 4.6 mph - N/A   Clear
10:35 PM - - N/A% 29.98 in 7.0 mi Calm Calm - N/A   Clear
10:55 PM - - N/A% 29.98 in 10.0 mi Calm Calm - N/A   Clear
11:15 PM - - N/A% 29.97 in 10.0 mi Calm Calm - N/A   Clear
11:35 PM - - N/A% 29.97 in 10.0 mi Calm Calm - N/A   Clear
11:55 PM - - N/A% 29.97 in 10.0 mi Calm Calm - N/A   Clear